{"data":{"norad_id":46035,"epoch":"2026-05-25T02:35:35.009376Z","epoch_age_seconds":59503,"freshness":"FRESH","line1":"1 46035U 20055J   26145.10804409  .00001116  00000+0  49800-4 0  9997","line2":"2 46035  53.1600 131.7551 0001266  94.6357 265.4788 15.30195320320595","mean_motion":15.3019532,"eccentricity":0.0001266,"inclination_deg":53.16,"raan_deg":131.7551,"arg_perigee_deg":94.6357,"mean_anomaly_deg":265.4788,"bstar":4.98e-5,"rev_number":32059,"period_min":94.105633521347,"perigee_km":474.36140695031,"apogee_km":476.09667923242,"semimajor_km":6853.3660430914,"source":"CELESTRAK","updated_at":"2026-05-25T13:38:16.459598Z"}}